Beaver Island, MI

10:26 AM EDT on October 23, 2017 (GMT -0400)
Beaver Island

Weather History for KSJX - April, 2013

Change the Weather History Date:

Wednesday, April 17, 2013

  Actual Average Record
Temperature  
Mean Temperature 33 °F -  
Max Temperature 41 °F 49 °F 77 °F (2002)
Min Temperature 25 °F 33 °F 22 °F (1978)
Degree Days  
Heating Degree Days 32    
Moisture  
Dew Point 30 °F    
Average Humidity 82    
Maximum Humidity 99    
Minimum Humidity 66    
Precipitation  
Precipitation 0.00 in - - ()
Sea Level Pressure  
Sea Level Pressure 30.31 in    
Wind  
Wind Speed 5 mph (ENE)    
Max Wind Speed 15 mph    
Max Gust Speed 23 mph    
Visibility 10 miles    
Events      
Averages and records for this station are not official NWS values.
T = Trace of Precipitation, MM = Missing Value Source: NWS Daily Summary

Daily Weather History Graph

Daily Weather History Graph

Search for Another Location

Airport or City:

Trip Planner

Search our weather history database for the weather conditions in past years. The results will help you decide how hot, cold, wet, or windy it might be!

Date:

Astronomy

Apr. 17, 2013 Rise Set
Actual Time 6:52 AM EDT 8:31 PM EDT
Civil Twilight 6:21 AM EDT 9:03 PM EDT
Nautical Twilight 5:43 AM EDT 9:41 PM EDT
Astronomical Twilight 5:02 AM EDT 10:22 PM EDT
Moon 11:59 AM EDT (4/17) 2:15 AM EDT (4/17)
Length of Visible Light 14h 41m
Length of Day
13h 39m
Waxing Crescent, 42% of the Moon is Illuminated
Apr 17
Waxing Crescent
Apr 18
First Quarter
Apr 25
Full
May 2
Last Quarter
May 9
New

Hourly Weather History & Observations

Time (EDT) Temp. Windchill Dew Point Humidity Pressure Visibility Wind Dir Wind Speed Gust Speed Precip Events Conditions
12:16 AM 33.8 °F 30.8 °F 30.2 °F 87% 30.34 in 10.0 mi NNW 3.5 mph - N/A   Clear
12:37 AM 32.9 °F 27.5 °F 29.7 °F 88% 30.34 in 10.0 mi North 5.8 mph - N/A   Clear
12:56 AM 32.9 °F 28.5 °F 29.7 °F 88% 30.34 in 10.0 mi North 4.6 mph - N/A   Clear
1:17 AM 32.4 °F - 29.5 °F 89% 30.34 in 10.0 mi Calm Calm - N/A   Clear
1:36 AM 32.0 °F 28.7 °F 29.1 °F 89% 30.35 in 10.0 mi North 3.5 mph - N/A   Clear
1:56 AM 32.0 °F 28.7 °F 29.1 °F 89% 30.36 in 10.0 mi NNW 3.5 mph - N/A   Clear
2:17 AM 31.8 °F 28.5 °F 29.3 °F 90% 30.36 in 10.0 mi NNW 3.5 mph - N/A   Clear
2:36 AM 31.3 °F - 29.1 °F 92% 30.36 in 10.0 mi Calm Calm - N/A   Clear
2:57 AM 29.1 °F - 27.3 °F 93% 30.37 in 10.0 mi Calm Calm - N/A   Clear
3:17 AM 27.0 °F - 25.5 °F 94% 30.37 in 10.0 mi Calm Calm - N/A   Clear
3:36 AM 27.0 °F 23.0 °F 26.1 °F 96% 30.38 in 10.0 mi WNW 3.5 mph - N/A   Clear
3:57 AM 27.7 °F - 26.8 °F 96% 30.38 in 10.0 mi Calm Calm - N/A   Clear
4:17 AM 30.2 °F - 29.3 °F 96% 30.38 in 10.0 mi Calm Calm - N/A   Clear
4:36 AM 28.0 °F - 27.1 °F 96% 30.38 in 10.0 mi Calm Calm - N/A   Clear
4:57 AM 27.0 °F - 26.2 °F 97% 30.38 in 10.0 mi Calm Calm - N/A   Clear
5:16 AM 25.9 °F - 25.3 °F 98% 30.38 in 10.0 mi Calm Calm - N/A   Clear
5:36 AM 26.6 °F - 26.2 °F 99% 30.38 in 7.0 mi Calm Calm - N/A   Clear
5:57 AM 25.3 °F - 24.8 °F 98% 30.39 in 10.0 mi Calm Calm - N/A   Clear
6:16 AM 26.4 °F - 25.9 °F 98% 30.39 in 10.0 mi Calm Calm - N/A   Clear
6:37 AM 25.3 °F - 24.8 °F 98% 30.38 in 10.0 mi Calm Calm - N/A   Clear
6:57 AM 25.3 °F - 25.0 °F 99% 30.39 in 10.0 mi Calm Calm - N/A   Clear
7:16 AM 27.3 °F 23.4 °F 27.1 °F 99% 30.40 in 10.0 mi ENE 3.5 mph - N/A   Clear
7:37 AM 30.4 °F 25.6 °F 30.2 °F 99% 30.40 in 10.0 mi East 4.6 mph - N/A   Clear
7:57 AM 31.8 °F 26.2 °F 31.5 °F 99% 30.40 in 10.0 mi ENE 5.8 mph - N/A   Clear
8:16 AM 32.5 °F 26.2 °F 32.2 °F 99% 30.40 in 10.0 mi East 6.9 mph - N/A   Clear
8:37 AM 33.8 °F 25.8 °F 32.9 °F 96% 30.39 in 10.0 mi East 10.4 mph - N/A   Clear
8:57 AM 34.2 °F 26.2 °F 32.5 °F 94% 30.39 in 10.0 mi ENE 10.4 mph - N/A   Scattered Clouds
9:16 AM 34.9 °F 28.3 °F 32.7 °F 92% 30.40 in 10.0 mi East 8.1 mph - N/A   Scattered Clouds
9:37 AM 35.8 °F 27.3 °F 32.7 °F 89% 30.41 in 10.0 mi East 12.7 mph - N/A   Scattered Clouds
10:17 AM 36.9 °F 30.7 °F 32.0 °F 83% 30.41 in 10.0 mi East 8.1 mph - N/A   Clear
10:37 AM 38.5 °F 32.7 °F 32.2 °F 78% 30.40 in 10.0 mi ENE 8.1 mph - N/A   Clear
10:56 AM 39.0 °F 33.4 °F 32.0 °F 76% 30.41 in 10.0 mi ENE 8.1 mph - N/A   Clear
11:17 AM 39.7 °F 34.3 °F 32.4 °F 75% 30.41 in 10.0 mi East 8.1 mph - N/A   Clear
11:37 AM 40.1 °F 33.6 °F 32.4 °F 74% 30.40 in 10.0 mi East 10.4 mph - N/A   Clear
11:56 AM 40.6 °F 35.4 °F 32.7 °F 73% 30.38 in 10.0 mi NE 8.1 mph - N/A   Clear
12:17 PM 39.7 °F 34.3 °F 32.2 °F 74% 30.36 in 10.0 mi NE 8.1 mph 16.1 mph N/A   Clear
12:37 PM 41.7 °F 35.6 °F 32.7 °F 70% 30.36 in 10.0 mi East 10.4 mph - N/A   Clear
12:56 PM 41.0 °F 35.8 °F 32.2 °F 71% 30.36 in 10.0 mi East 8.1 mph - N/A   Clear
1:17 PM 41.7 °F 36.1 °F 33.3 °F 72% 30.35 in 10.0 mi ENE 9.2 mph - N/A   Clear
1:36 PM 41.9 °F 35.9 °F 32.9 °F 70% 30.34 in 10.0 mi ENE 10.4 mph - N/A   Clear
1:57 PM 41.5 °F 35.4 °F 32.9 °F 71% 30.33 in 10.0 mi East 10.4 mph - N/A   Clear
2:17 PM 41.0 °F 34.7 °F 32.4 °F 71% 30.33 in 10.0 mi ENE 10.4 mph 16.1 mph N/A   Clear
2:36 PM 40.5 °F 34.1 °F 32.0 °F 72% 30.31 in 10.0 mi ENE 10.4 mph 18.4 mph N/A   Clear
2:57 PM 41.2 °F 34.1 °F 32.0 °F 70% 30.29 in 10.0 mi ENE 12.7 mph 18.4 mph N/A   Clear
3:17 PM 39.9 °F 32.5 °F 32.0 °F 73% 30.28 in 10.0 mi NE 12.7 mph 19.6 mph N/A   Mostly Cloudy
3:36 PM 39.9 °F 33.4 °F 32.2 °F 74% 30.28 in 10.0 mi ENE 10.4 mph 17.3 mph N/A   Overcast
3:57 PM 39.4 °F 32.7 °F 32.4 °F 76% 30.28 in 10.0 mi ENE 10.4 mph 17.3 mph N/A   Overcast
4:37 PM 39.0 °F 32.8 °F 32.0 °F 76% 30.27 in 10.0 mi ENE 9.2 mph 16.1 mph N/A   Overcast
4:57 PM 38.8 °F 32.1 °F 32.0 °F 76% 30.28 in 10.0 mi ENE 10.4 mph - N/A   Overcast
5:16 PM 39.0 °F 31.8 °F 32.0 °F 76% 30.27 in 10.0 mi ENE 11.5 mph 17.3 mph N/A   Overcast
5:37 PM 39.2 °F 32.5 °F 31.6 °F 74% 30.25 in 10.0 mi ENE 10.4 mph 21.9 mph N/A   Mostly Cloudy
5:57 PM 39.4 °F 31.1 °F 31.5 °F 73% 30.23 in 10.0 mi ENE 15.0 mph 19.6 mph N/A   Mostly Cloudy
6:16 PM 39.2 °F 31.6 °F 31.1 °F 73% 30.22 in 10.0 mi ENE 12.7 mph 23.0 mph N/A   Mostly Cloudy
6:37 PM 39.2 °F 31.2 °F 30.7 °F 72% 30.21 in 10.0 mi ENE 13.8 mph 20.7 mph N/A   Mostly Cloudy
6:56 PM 39.0 °F 31.4 °F 30.7 °F 72% 30.20 in 10.0 mi ENE 12.7 mph 20.7 mph N/A   Overcast
7:17 PM 38.7 °F 31.8 °F 30.9 °F 74% 30.20 in 10.0 mi ENE 10.4 mph 18.4 mph N/A   Overcast
7:37 PM 39.2 °F 32.5 °F 30.7 °F 72% 30.19 in 10.0 mi ENE 10.4 mph 18.4 mph N/A   Overcast
7:56 PM 38.8 °F 31.6 °F 30.6 °F 72% 30.19 in 10.0 mi ENE 11.5 mph 17.3 mph N/A   Overcast
8:17 PM 39.2 °F 32.0 °F 30.0 °F 70% 30.17 in 10.0 mi ENE 11.5 mph 18.4 mph N/A   Overcast
8:37 PM 39.2 °F 33.0 °F 29.7 °F 69% 30.17 in 10.0 mi ENE 9.2 mph - N/A   Overcast
8:56 PM 39.4 °F 32.3 °F 28.8 °F 66% 30.17 in 10.0 mi ENE 11.5 mph 17.3 mph N/A   Overcast
9:17 PM 39.2 °F 32.5 °F 29.3 °F 68% 30.16 in 10.0 mi ENE 10.4 mph 16.1 mph N/A   Overcast
9:36 PM 38.8 °F 33.2 °F 29.7 °F 70% 30.15 in 10.0 mi East 8.1 mph - N/A   Overcast
9:57 PM 38.3 °F 33.2 °F 30.0 °F 72% 30.15 in 10.0 mi ENE 6.9 mph - N/A   Overcast
10:17 PM 37.8 °F 32.5 °F 30.7 °F 76% 30.15 in 10.0 mi ENE 6.9 mph - N/A   Overcast
10:57 PM 37.0 °F 33.3 °F 31.1 °F 79% 30.15 in 10.0 mi ENE 4.6 mph - N/A   Overcast
11:17 PM 37.4 °F 32.8 °F 30.9 °F 77% 30.13 in 10.0 mi ENE 5.8 mph - N/A   Overcast
11:36 PM 37.4 °F 31.4 °F 30.7 °F 77% 30.11 in 10.0 mi East 8.1 mph - N/A   Overcast
11:57 PM 37.4 °F 29.3 °F 31.1 °F 78% 30.10 in 10.0 mi ENE 12.7 mph 17.3 mph N/A   Overcast